QPF
0.01 0.00 0.01 0.01 0.01 0.01 0.02 0.02 0.02 0.01 0.00 0.00 0.00 0.00 0.00 0.00 0.00 0.02 0.02 0.02 0.02 0.01 0.02 0.04 0.06 0.04 0.03 0.05 0.05 0.02 0.02 0.03 0.03 0.03 0.04 0.04 0.04 0.03 0.04 0.04 0.03 0.03 0.03 0.04
0.01 0.00 0.01 0.01 0.01 0.01 0.01 0.02 0.02 0.01 0.00 0.00 0.00 0.00 0.00 0.00 0.00 0.02 0.02 0.02 0.02 0.02 0.02 0.03 0.06 0.06 0.04 0.04 0.06 0.03 0.02 0.02 0.02 0.03 0.04 0.04 0.04 0.04 0.05 0.05 0.04 0.03 0.03 0.04
0.01 0.00 0.01 0.02 0.01 0.01 0.01 0.01 0.01 0.00 0.00 0.00 0.00 0.00 0.00 0.00 0.01 0.01 0.03 0.05 0.02 0.01 0.02 0.03 0.04 0.07 0.07 0.04 0.05 0.03 0.02 0.02 0.02 0.03 0.03 0.04 0.04 0.04 0.04 0.05 0.04 0.04 0.04 0.04
0.02 0.01 0.01 0.01 0.00 0.00 0.01 0.01 0.01 0.01 0.01 0.01 0.01 0.00 0.01 0.01 0.01 0.01 0.03 0.05 0.02 0.02 0.02 0.02 0.03 0.05 0.08 0.07 0.05 0.04 0.02 0.02 0.02 0.02 0.03 0.03 0.03 0.03 0.04 0.04 0.04 0.04 0.05 0.05
0.03 0.02 0.01 0.00 0.00 0.00 0.01 0.01 0.01 0.01 0.01 0.01 0.01 0.01 0.01 0.01 0.01 0.01 0.03 0.05 0.03 0.03 0.02 0.02 0.03 0.04 0.06 0.09 0.08 0.04 0.03 0.02 0.02 0.02 0.02 0.03 0.03 0.03 0.03 0.04 0.04 0.04 0.05 0.05
0.03 0.03 0.01 0.00 0.00 0.00 0.01 0.01 0.01 0.01 0.01 0.01 0.01 0.01 0.01 0.01 0.01 0.01 0.02 0.04 0.05 0.03 0.02 0.03 0.03 0.03 0.04 0.07 0.08 0.06 0.04 0.02 0.02 0.02 0.02 0.02 0.02 0.02 0.03 0.04 0.04 0.05 0.05 0.05
0.03 0.03 0.02 0.00 0.00 0.01 0.02 0.01 0.01 0.01 0.01 0.01 0.01 0.02 0.01 0.01 0.01 0.01 0.01 0.02 0.03 0.02 0.03 0.04 0.03 0.03 0.03 0.04 0.06 0.06 0.06 0.04 0.03 0.03 0.02 0.02 0.02 0.03 0.03 0.04 0.05 0.05 0.05 0.06
0.02 0.03 0.02 0.01 0.01 0.01 0.02 0.01 0.01 0.01 0.01 0.01 0.01 0.01 0.01 0.01 0.01 0.02 0.01 0.01 0.02 0.02 0.03 0.03 0.03 0.03 0.02 0.02 0.04 0.05 0.05 0.05 0.04 0.03 0.03 0.03 0.03 0.03 0.03 0.04 0.04 0.04 0.05 0.05
0.02 0.02 0.01 0.01 0.01 0.01 0.01 0.01 0.01 0.01 0.01 0.01 0.01 0.01 0.01 0.01 0.01 0.01 0.01 0.01 0.02 0.02 0.03 0.03 0.03 0.04 0.03 0.02 0.03 0.04 0.05 0.05 0.05 0.05 0.04 0.04 0.04 0.04 0.04 0.04 0.04 0.03 0.03 0.04
0.02 0.01 0.01 0.01 0.02 0.02 0.02 0.02 0.02 0.01 0.01 0.01 0.01 0.01 0.01 0.01 0.01 0.01 0.01 0.01 0.01 0.02 0.02 0.02 0.02 0.03 0.04 0.04 0.03 0.03 0.04 0.05 0.05 0.06 0.05 0.04 0.04 0.04 0.04 0.04 0.03 0.03 0.03 0.03
0.01 0.01 0.02 0.02 0.02 0.02 0.02 0.02 0.02 0.01 0.01 0.01 0.01 0.01 0.00 0.00 0.00 0.01 0.01 0.01 0.01 0.01 0.02 0.02 0.03 0.02 0.03 0.04 0.04 0.04 0.03 0.04 0.04 0.04 0.04 0.04 0.04 0.04 0.04 0.04 0.04 0.04 0.03 0.03
0.01 0.01 0.01 0.02 0.01 0.02 0.01 0.01 0.01 0.01 0.01 0.01 0.00 0.00 0.00 0.00 0.01 0.01 0.01 0.01 0.01 0.01 0.01 0.02 0.02 0.02 0.02 0.03 0.05 0.04 0.03 0.03 0.04 0.04 0.04 0.04 0.04 0.05 0.06 0.05 0.05 0.05 0.04 0.04
0.01 0.01 0.02 0.02 0.01 0.01 0.01 0.01 0.01 0.01 0.01 0.00 0.00 0.00 0.01 0.01 0.01 0.01 0.01 0.01 0.01 0.01 0.01 0.02 0.02 0.02 0.02 0.03 0.04 0.05 0.04 0.04 0.05 0.05 0.04 0.04 0.04 0.04 0.05 0.05 0.06 0.05 0.04 0.04
0.01 0.01 0.01 0.01 0.01 0.01 0.01 0.01 0.01 0.00 0.00 0.01 0.01 0.01 0.01 0.01 0.01 0.01 0.01 0.01 0.01 0.01 0.01 0.02 0.02 0.02 0.03 0.03 0.04 0.05 0.05 0.05 0.05 0.06 0.06 0.06 0.05 0.04 0.04 0.04 0.04 0.04 0.03 0.03
0.01 0.01 0.01 0.01 0.01 0.01 0.01 0.01 0.01 0.01 0.01 0.01 0.01 0.01 0.01 0.01 0.01 0.01 0.01 0.01 0.01 0.01 0.01 0.02 0.02 0.03 0.03 0.03 0.04 0.04 0.05 0.05 0.05 0.06 0.06 0.07 0.07 0.06 0.05 0.04 0.04 0.03 0.02 0.02
0.01 0.01 0.01 0.01 0.01 0.01 0.01 0.01 0.01 0.01 0.01 0.01 0.01 0.01 0.01 0.01 0.01 0.01 0.01 0.01 0.01 0.01 0.01 0.01 0.02 0.02 0.03 0.03 0.03 0.04 0.04 0.05 0.06 0.05 0.06 0.06 0.06 0.06 0.06 0.05 0.04 0.03 0.02 0.02
0.01 0.01 0.01 0.01 0.01 0.01 0.01 0.01 0.01 0.01 0.01 0.01 0.01 0.01 0.01 0.01 0.01 0.01 0.01 0.01 0.01 0.01 0.01 0.02 0.02 0.02 0.02 0.02 0.03 0.04 0.04 0.04 0.05 0.05 0.05 0.06 0.05 0.04 0.05 0.05 0.05 0.04 0.04 0.03
0.01 0.01 0.01 0.01 0.01 0.01 0.01 0.01 0.01 0.00 0.00 0.00 0.00 0.00 0.00 0.00 0.01 0.01 0.01 0.01 0.01 0.02 0.02 0.02 0.02 0.02 0.02 0.02 0.02 0.03 0.04 0.04 0.04 0.04 0.05 0.05 0.06 0.05 0.05 0.05 0.05 0.05 0.05 0.05
0.01 0.01 0.01 0.01 0.00 0.00 0.00 0.00 0.00 0.00 0.00 0.00 0.00 0.01 0.01 0.01 0.01 0.01 0.02 0.02 0.02 0.01 0.01 0.01 0.01 0.01 0.01 0.01 0.02 0.02 0.03 0.03 0.04 0.04 0.04 0.05 0.05 0.06 0.06 0.05 0.05 0.04 0.04 0.04
0.01 0.00 0.00 0.00 0.00 0.00 0.00 0.00 0.00 0.00 0.01 0.01 0.01 0.01 0.01 0.01 0.01 0.01 0.01 0.01 0.01 0.01 0.01 0.01 0.01 0.01 0.01 0.01 0.01 0.02 0.02 0.02 0.03 0.03 0.04 0.04 0.04 0.04 0.05 0.05 0.05 0.05 0.04 0.03
0.01 0.00 0.00 0.00 0.00 0.00 0.01 0.01 0.00 0.01 0.01 0.01 0.01 0.01 0.01 0.00 0.01 0.01 0.01 0.00 0.01 0.01 0.01 0.01 0.01 0.01 0.01 0.01 0.02 0.01 0.01 0.02 0.02 0.02 0.03 0.03 0.03 0.04 0.04 0.04 0.05 0.05 0.05 0.04
0.01 0.01 0.01 0.00 0.00 0.00 0.00 0.00 0.00 0.00 0.00 0.01 0.01 0.01 0.00 0.00 0.00 0.00 0.00 0.00 0.01 0.01 0.01 0.01 0.01 0.01 0.02 0.02 0.01 0.01 0.01 0.01 0.01 0.02 0.02 0.02 0.03 0.03 0.03 0.03 0.03 0.04 0.04 0.04
0.01 0.01 0.00 0.00 0.00 0.00 0.00 0.00 0.00 0.00 0.00 0.00 0.00 0.00 0.00 0.00 0.00 0.00 0.00 0.00 0.01 0.01 0.01 0.01 0.01 0.02 0.02 0.02 0.01 0.01 0.01 0.01 0.01 0.01 0.01 0.02 0.02 0.02 0.02 0.03 0.03 0.03 0.03 0.03
0.00 0.00 0.00 0.00 0.00 0.00 0.00 0.00 0.00 0.00 0.00 0.00 0.00 0.00 0.00 0.00 0.00 0.00 0.00 0.00 0.01 0.01 0.01 0.01 0.01 0.02 0.02 0.01 0.01 0.01 0.01 0.01 0.01 0.01 0.01 0.01 0.01 0.02 0.02 0.02 0.02 0.02 0.02 0.02
0.00 0.00 0.00 0.00 0.00 0.00 0.00 0.00 0.00 0.00 0.00 0.00 0.00 0.00 0.00 0.00 0.00 0.00 0.00 0.00 0.00 0.01 0.01 0.01 0.01 0.01 0.01 0.01 0.01 0.01 0.01 0.01 0.01 0.01 0.01 0.01 0.01 0.01 0.01 0.02 0.02 0.02 0.02 0.02
0.00 0.00 0.00 0.00 0.00 0.00 0.00 0.00 0.00 0.00 0.00 0.00 0.00 0.00 0.00 0.00 0.00 0.00 0.00 0.00 0.00 0.00 0.00 0.01 0.01 0.01 0.01 0.01 0.01 0.01 0.01 0.01 0.01 0.01 0.01 0.01 0.01 0.01 0.01 0.01 0.01 0.02 0.02 0.02
0.00 0.00 0.00 0.00 0.00 0.00 0.00 0.00 0.00 0.00 0.00 0.00 0.00 0.00 0.00 0.00 0.00 0.00 0.00 0.00 0.00 0.00 0.00 0.01 0.01 0.00 0.00 0.01 0.01 0.01 0.01 0.01 0.01 0.01 0.01 0.01 0.01 0.01 0.01 0.01 0.01 0.01 0.02 0.02
MSLP
1032.55 1033.34 1033.85 1034.01 1033.80 1033.26 1032.46 1031.51 1030.51 1029.59 1028.84 1028.30 1028.00 1027.88 1027.89 1027.92 1027.87 1027.64 1027.16 1026.37 1025.25 1023.83 1022.17 1020.34 1018.43 1016.56 1014.83 1013.35 1012.20 1011.45 1011.13 1011.26 1011.79 1012.70 1013.89 1015.26 1016.72 1018.15 1019.50 1020.69 1021.72 1022.59 1023.35 1024.04
1032.71 1033.50 1034.08 1034.37 1034.36 1034.05 1033.50 1032.78 1031.99 1031.20 1030.50 1029.94 1029.53 1029.25 1029.08 1028.93 1028.73 1028.42 1027.92 1027.19 1026.19 1024.92 1023.42 1021.73 1019.92 1018.07 1016.27 1014.64 1013.27 1012.24 1011.63 1011.45 1011.71 1012.39 1013.41 1014.67 1016.08 1017.52 1018.89 1020.13 1021.20 1022.10 1022.87 1023.55
1032.77 1033.47 1034.01 1034.36 1034.47 1034.36 1034.05 1033.59 1033.04 1032.45 1031.87 1031.35 1030.90 1030.52 1030.20 1029.88 1029.54 1029.12 1028.56 1027.84 1026.90 1025.75 1024.38 1022.81 1021.08 1019.26 1017.43 1015.68 1014.13 1012.88 1011.99 1011.55 1011.56 1012.01 1012.86 1014.02 1015.36 1016.79 1018.18 1019.47 1020.59 1021.54 1022.34 1023.02
1032.72 1033.26 1033.71 1034.04 1034.24 1034.28 1034.20 1033.99 1033.69 1033.32 1032.91 1032.48 1032.05 1031.61 1031.17 1030.71 1030.22 1029.67 1029.03 1028.26 1027.35 1026.26 1024.97 1023.50 1021.85 1020.07 1018.22 1016.41 1014.73 1013.30 1012.21 1011.53 1011.32 1011.58 1012.27 1013.31 1014.60 1016.00 1017.42 1018.75 1019.93 1020.94 1021.77 1022.48
1032.53 1032.89 1033.23 1033.51 1033.75 1033.93 1034.03 1034.06 1034.00 1033.86 1033.63 1033.32 1032.93 1032.47 1031.94 1031.35 1030.71 1030.02 1029.27 1028.44 1027.51 1026.44 1025.22 1023.81 1022.23 1020.51 1018.68 1016.84 1015.09 1013.53 1012.29 1011.44 1011.05 1011.14 1011.69 1012.62 1013.84 1015.22 1016.64 1018.01 1019.24 1020.30 1021.19 1021.94
1032.19 1032.40 1032.62 1032.87 1033.13 1033.41 1033.67 1033.90 1034.07 1034.13 1034.08 1033.88 1033.54 1033.06 1032.46 1031.76 1030.99 1030.17 1029.30 1028.39 1027.42 1026.36 1025.17 1023.83 1022.32 1020.66 1018.88 1017.05 1015.28 1013.66 1012.32 1011.35 1010.82 1010.77 1011.18 1012.01 1013.15 1014.48 1015.89 1017.27 1018.54 1019.65 1020.58 1021.38
1031.69 1031.80 1031.95 1032.17 1032.47 1032.83 1033.23 1033.62 1033.96 1034.19 1034.28 1034.19 1033.89 1033.40 1032.74 1031.95 1031.06 1030.12 1029.15 1028.17 1027.16 1026.09 1024.94 1023.67 1022.24 1020.66 1018.95 1017.17 1015.41 1013.78 1012.39 1011.33 1010.70 1010.53 1010.82 1011.53 1012.57 1013.83 1015.20 1016.56 1017.84 1018.98 1019.95 1020.78
1031.09 1031.15 1031.28 1031.51 1031.84 1032.27 1032.78 1033.29 1033.76 1034.12 1034.31 1034.28 1034.02 1033.51 1032.81 1031.94 1030.96 1029.93 1028.89 1027.85 1026.81 1025.76 1024.65 1023.44 1022.10 1020.62 1019.01 1017.31 1015.60 1013.99 1012.57 1011.47 1010.75 1010.46 1010.63 1011.21 1012.13 1013.29 1014.58 1015.89 1017.14 1018.27 1019.26 1020.12
1030.48 1030.55 1030.69 1030.94 1031.32 1031.81 1032.39 1032.99 1033.54 1033.97 1034.22 1034.23 1033.98 1033.46 1032.72 1031.80 1030.76 1029.67 1028.58 1027.51 1026.47 1025.45 1024.39 1023.26 1022.03 1020.65 1019.15 1017.54 1015.90 1014.32 1012.91 1011.77 1010.97 1010.57 1010.61 1011.04 1011.81 1012.83 1014.00 1015.23 1016.42 1017.52 1018.50 1019.37
1029.96 1030.07 1030.24 1030.53 1030.95 1031.48 1032.10 1032.74 1033.33 1033.80 1034.07 1034.09 1033.83 1033.30 1032.53 1031.58 1030.51 1029.40 1028.29 1027.22 1026.20 1025.22 1024.23 1023.19 1022.05 1020.79 1019.39 1017.88 1016.32 1014.79 1013.38 1012.20 1011.33 1010.82 1010.71 1010.98 1011.58 1012.43 1013.46 1014.56 1015.66 1016.71 1017.66 1018.53
1029.65 1029.79 1030.00 1030.32 1030.76 1031.31 1031.94 1032.59 1033.18 1033.64 1033.90 1033.91 1033.64 1033.09 1032.31 1031.35 1030.27 1029.16 1028.06 1027.01 1026.03 1025.10 1024.18 1023.22 1022.18 1021.01 1019.71 1018.29 1016.80 1015.31 1013.92 1012.70 1011.75 1011.12 1010.86 1010.96 1011.38 1012.05 1012.91 1013.87 1014.86 1015.83 1016.75 1017.60
1029.61 1029.78 1030.01 1030.34 1030.77 1031.31 1031.92 1032.54 1033.09 1033.52 1033.75 1033.73 1033.44 1032.88 1032.09 1031.13 1030.07 1028.97 1027.90 1026.88 1025.94 1025.06 1024.19 1023.31 1022.34 1021.26 1020.04 1018.70 1017.27 1015.81 1014.42 1013.17 1012.15 1011.41 1011.01 1010.94 1011.17 1011.67 1012.35 1013.17 1014.04 1014.93 1015.79 1016.63
1029.87 1030.03 1030.26 1030.56 1030.97 1031.47 1032.03 1032.59 1033.08 1033.45 1033.63 1033.58 1033.26 1032.69 1031.91 1030.96 1029.92 1028.85 1027.80 1026.81 1025.90 1025.05 1024.23 1023.39 1022.47 1021.45 1020.30 1019.01 1017.63 1016.21 1014.83 1013.55 1012.47 1011.64 1011.11 1010.89 1010.97 1011.29 1011.82 1012.49 1013.25 1014.06 1014.87 1015.68
1030.38 1030.52 1030.71 1030.97 1031.32 1031.75 1032.23 1032.72 1033.14 1033.44 1033.57 1033.47 1033.13 1032.55 1031.77 1030.84 1029.82 1028.77 1027.74 1026.77 1025.88 1025.04 1024.23 1023.41 1022.53 1021.55 1020.44 1019.21 1017.87 1016.49 1015.12 1013.84 1012.72 1011.83 1011.20 1010.86 1010.80 1010.99 1011.38 1011.93 1012.59 1013.31 1014.07 1014.85
1031.07 1031.17 1031.30 1031.50 1031.78 1032.12 1032.51 1032.91 1033.25 1033.47 1033.54 1033.40 1033.04 1032.46 1031.69 1030.77 1029.77 1028.73 1027.72 1026.75 1025.86 1025.02 1024.21 1023.39 1022.52 1021.57 1020.49 1019.30 1018.02 1016.68 1015.35 1014.08 1012.96 1012.03 1011.35 1010.93 1010.76 1010.84 1011.13 1011.57 1012.13 1012.78 1013.48 1014.22
1031.86 1031.90 1031.97 1032.09 1032.28 1032.53 1032.82 1033.12 1033.37 1033.53 1033.54 1033.37 1032.99 1032.40 1031.64 1030.74 1029.76 1028.74 1027.73 1026.76 1025.86 1025.01 1024.19 1023.37 1022.50 1021.56 1020.53 1019.39 1018.16 1016.88 1015.60 1014.39 1013.29 1012.36 1011.66 1011.19 1010.96 1010.96 1011.16 1011.51 1011.99 1012.56 1013.20 1013.89
1032.65 1032.64 1032.63 1032.67 1032.76 1032.92 1033.11 1033.32 1033.49 1033.58 1033.54 1033.34 1032.95 1032.37 1031.63 1030.75 1029.79 1028.79 1027.79 1026.83 1025.92 1025.06 1024.23 1023.41 1022.55 1021.64 1020.65 1019.57 1018.42 1017.22 1016.02 1014.87 1013.83 1012.94 1012.24 1011.75 1011.49 1011.43 1011.55 1011.83 1012.23 1012.72 1013.28 1013.89
1033.38 1033.31 1033.24 1033.19 1033.20 1033.25 1033.35 1033.47 1033.56 1033.59 1033.51 1033.29 1032.90 1032.34 1031.63 1030.79 1029.87 1028.90 1027.93 1026.99 1026.08 1025.23 1024.41 1023.59 1022.77 1021.90 1020.97 1019.96 1018.90 1017.80 1016.70 1015.64 1014.67 1013.83 1013.16 1012.68 1012.39 1012.28 1012.34 1012.55 1012.86 1013.27 1013.74 1014.26
1034.00 1033.88 1033.74 1033.62 1033.53 1033.50 1033.50 1033.54 1033.56 1033.54 1033.42 1033.19 1032.82 1032.29 1031.63 1030.85 1029.98 1029.07 1028.15 1027.24 1026.38 1025.55 1024.76 1023.99 1023.21 1022.40 1021.54 1020.63 1019.67 1018.68 1017.69 1016.73 1015.85 1015.07 1014.44 1013.96 1013.65 1013.51 1013.51 1013.63 1013.86 1014.17 1014.54 1014.96
1034.50 1034.33 1034.12 1033.92 1033.75 1033.63 1033.55 1033.51 1033.48 1033.41 1033.28 1033.05 1032.70 1032.22 1031.62 1030.91 1030.12 1029.29 1028.44 1027.60 1026.80 1026.03 1025.29 1024.58 1023.87 1023.14 1022.37 1021.56 1020.71 1019.84 1018.95 1018.10 1017.30 1016.58 1015.99 1015.52 1015.20 1015.01 1014.95 1015.00 1015.13 1015.34 1015.61 1015.91
1034.87 1034.64 1034.38 1034.10 1033.86 1033.66 1033.51 1033.40 1033.32 1033.22 1033.08 1032.86 1032.55 1032.12 1031.59 1030.97 1030.28 1029.54 1028.78 1028.03 1027.31 1026.62 1025.96 1025.32 1024.69 1024.05 1023.38 1022.67 1021.93 1021.17 1020.39 1019.63 1018.90 1018.25 1017.68 1017.23 1016.89 1016.66 1016.54 1016.51 1016.56 1016.68 1016.84 1017.04
1035.12 1034.84 1034.51 1034.18 1033.87 1033.60 1033.40 1033.24 1033.11 1032.99 1032.85 1032.65 1032.38 1032.02 1031.57 1031.03 1030.44 1029.80 1029.14 1028.49 1027.86 1027.26 1026.68 1026.13 1025.58 1025.03 1024.45 1023.84 1023.20 1022.54 1021.85 1021.18 1020.52 1019.92 1019.39 1018.94 1018.59 1018.33 1018.15 1018.06 1018.03 1018.06 1018.13 1018.24
1035.25 1034.92 1034.55 1034.16 1033.81 1033.50 1033.25 1033.06 1032.91 1032.78 1032.63 1032.46 1032.23 1031.92 1031.55 1031.10 1030.59 1030.05 1029.49 1028.94 1028.39 1027.87 1027.38 1026.90 1026.43 1025.96 1025.47 1024.95 1024.40 1023.82 1023.22 1022.61 1022.03 1021.47 1020.97 1020.53 1020.17 1019.89 1019.67 1019.53 1019.44 1019.40 1019.40 1019.44
1035.26 1034.90 1034.49 1034.09 1033.71 1033.38 1033.12 1032.91 1032.75 1032.61 1032.48 1032.32 1032.13 1031.87 1031.55 1031.17 1030.75 1030.28 1029.80 1029.32 1028.86 1028.41 1027.98 1027.57 1027.16 1026.76 1026.34 1025.89 1025.41 1024.91 1024.38 1023.85 1023.32 1022.81 1022.35 1021.93 1021.57 1021.27 1021.04 1020.86 1020.73 1020.64 1020.59 1020.57
1035.15 1034.78 1034.37 1033.97 1033.60 1033.28 1033.03 1032.82 1032.67 1032.54 1032.42 1032.28 1032.10 1031.88 1031.60 1031.27 1030.89 1030.49 1030.06 1029.64 1029.22 1028.83 1028.45 1028.08 1027.73 1027.38 1027.01 1026.63 1026.21 1025.78 1025.32 1024.85 1024.38 1023.92 1023.49 1023.09 1022.75 1022.45 1022.21 1022.01 1021.86 1021.74 1021.65 1021.59
1034.92 1034.56 1034.19 1033.83 1033.50 1033.22 1032.99 1032.82 1032.68 1032.57 1032.46 1032.32 1032.16 1031.95 1031.69 1031.38 1031.03 1030.66 1030.27 1029.87 1029.49 1029.13 1028.78 1028.45 1028.14 1027.82 1027.50 1027.16 1026.81 1026.43 1026.03 1025.62 1025.21 1024.80 1024.41 1024.05 1023.72 1023.43 1023.19 1022.98 1022.81 1022.67 1022.55 1022.46
1034.58 1034.28 1033.97 1033.67 1033.41 1033.19 1033.01 1032.88 1032.77 1032.67 1032.56 1032.44 1032.27 1032.06 1031.80 1031.50 1031.16 1030.79 1030.42 1030.04 1029.67 1029.33 1029.01 1028.70 1028.42 1028.14 1027.85 1027.56 1027.25 1026.93 1026.58 1026.23 1025.86 1025.50 1025.15 1024.81 1024.51 1024.23 1023.98 1023.76 1023.57 1023.41 1023.27 1023.15
Thickness
5424 5428 5424 5425 5425 5417 5410 5409 5409 5422 5421 5431 5424 5417 5414 5411 5409 5408 5406 5405 5404 5404 5403 5404 5404 5404 5405 5407 5407 5408 5409 5410 5411 5412 5413 5413 5414 5414 5415 5416 5417 5418 5418 5417
5409 5417 5413 5414 5418 5413 5411 5407 5405 5408 5414 5416 5407 5403 5401 5398 5397 5397 5396 5394 5393 5393 5392 5392 5393 5394 5395 5395 5396 5396 5398 5399 5400 5401 5401 5401 5401 5401 5402 5403 5404 5404 5404 5404
5396 5400 5399 5402 5409 5407 5403 5399 5398 5403 5411 5402 5396 5394 5390 5388 5387 5385 5383 5382 5381 5381 5380 5381 5382 5383 5382 5383 5384 5385 5386 5388 5389 5389 5389 5389 5388 5388 5389 5389 5390 5391 5392 5392
5377 5381 5385 5410 5399 5398 5396 5393 5387 5388 5387 5385 5383 5378 5374 5372 5371 5370 5370 5369 5369 5368 5369 5370 5370 5370 5370 5370 5370 5372 5374 5375 5376 5377 5377 5377 5376 5376 5377 5377 5378 5379 5380 5380
5363 5364 5378 5392 5387 5379 5380 5382 5377 5375 5376 5374 5367 5363 5363 5361 5358 5356 5355 5355 5355 5356 5358 5359 5359 5359 5359 5359 5359 5360 5361 5363 5364 5364 5364 5364 5364 5364 5365 5365 5366 5367 5368 5368
5353 5357 5368 5388 5376 5368 5369 5370 5370 5364 5362 5360 5355 5356 5356 5350 5346 5344 5343 5343 5344 5345 5346 5347 5347 5347 5346 5347 5348 5349 5350 5351 5351 5351 5352 5352 5352 5352 5352 5353 5354 5354 5355 5355
5347 5347 5355 5365 5358 5358 5361 5367 5357 5350 5347 5343 5340 5341 5337 5335 5333 5331 5331 5331 5332 5332 5333 5333 5333 5334 5334 5334 5335 5336 5337 5338 5339 5339 5339 5340 5340 5340 5339 5340 5340 5341 5342 5343
5333 5337 5350 5352 5345 5349 5352 5345 5340 5336 5332 5329 5326 5322 5321 5320 5319 5318 5318 5318 5318 5318 5318 5318 5319 5320 5321 5321 5322 5322 5324 5324 5325 5326 5326 5327 5326 5326 5326 5326 5326 5327 5328 5330
5337 5347 5344 5336 5336 5333 5330 5328 5326 5322 5318 5314 5311 5309 5308 5307 5305 5304 5304 5304 5303 5303 5303 5303 5304 5305 5306 5307 5308 5309 5310 5311 5312 5313 5313 5314 5313 5313 5313 5313 5314 5315 5316 5317
5322 5330 5328 5323 5318 5317 5315 5312 5310 5307 5304 5301 5298 5297 5294 5294 5292 5291 5290 5290 5289 5289 5289 5289 5289 5290 5291 5293 5294 5296 5296 5297 5298 5299 5300 5300 5301 5301 5301 5301 5302 5303 5304 5305
5315 5318 5312 5312 5306 5304 5301 5297 5295 5293 5290 5288 5285 5283 5281 5280 5278 5277 5277 5275 5275 5274 5275 5275 5275 5276 5278 5279 5281 5282 5283 5284 5285 5286 5286 5287 5288 5289 5289 5290 5291 5291 5293 5294
5319 5313 5304 5304 5295 5291 5287 5284 5281 5278 5276 5273 5270 5268 5267 5264 5263 5262 5262 5261 5260 5260 5260 5260 5261 5263 5264 5265 5267 5268 5269 5270 5271 5272 5274 5275 5276 5276 5277 5278 5279 5281 5282 5283
5298 5292 5288 5285 5280 5276 5272 5269 5265 5262 5260 5257 5254 5252 5251 5249 5248 5247 5246 5246 5246 5246 5246 5246 5248 5249 5251 5252 5253 5254 5255 5257 5258 5260 5261 5262 5263 5264 5265 5266 5267 5269 5270 5272
5278 5276 5274 5271 5266 5260 5256 5252 5248 5245 5243 5241 5239 5238 5236 5234 5233 5233 5232 5232 5232 5232 5232 5233 5234 5235 5237 5238 5240 5241 5242 5244 5246 5246 5248 5249 5250 5251 5252 5253 5254 5255 5257 5258
5264 5262 5259 5254 5248 5244 5240 5236 5233 5230 5228 5227 5225 5223 5221 5219 5219 5218 5218 5219 5219 5219 5219 5220 5221 5222 5224 5225 5226 5227 5229 5230 5232 5233 5234 5236 5237 5238 5238 5239 5241 5241 5242 5243
5251 5246 5242 5239 5235 5230 5225 5222 5219 5217 5215 5213 5211 5209 5207 5205 5204 5203 5204 5204 5203 5204 5205 5206 5208 5210 5211 5212 5213 5214 5216 5218 5220 5220 5221 5223 5224 5225 5225 5226 5228 5229 5229 5230
5239 5235 5231 5227 5222 5217 5213 5209 5206 5204 5201 5199 5197 5195 5193 5192 5190 5190 5190 5190 5190 5191 5192 5194 5195 5197 5198 5199 5200 5202 5203 5205 5207 5208 5208 5209 5211 5212 5212 5213 5214 5215 5216 5217
5228 5225 5220 5216 5210 5205 5201 5198 5194 5191 5189 5187 5184 5182 5180 5178 5177 5177 5177 5177 5178 5179 5180 5182 5183 5185 5186 5186 5188 5189 5190 5191 5192 5193 5194 5195 5197 5198 5199 5200 5201 5202 5203 5204
5215 5212 5208 5204 5199 5194 5190 5186 5182 5179 5177 5174 5172 5170 5167 5166 5165 5165 5165 5165 5166 5166 5168 5169 5172 5172 5173 5174 5176 5176 5177 5178 5179 5180 5181 5183 5184 5184 5185 5186 5187 5188 5189 5191
5204 5201 5196 5192 5187 5182 5178 5174 5170 5167 5164 5162 5160 5158 5156 5155 5154 5154 5153 5153 5154 5155 5156 5158 5159 5160 5160 5161 5164 5164 5164 5165 5166 5167 5168 5168 5169 5170 5172 5173 5174 5175 5176 5178
5194 5189 5185 5181 5176 5171 5167 5163 5159 5156 5154 5152 5149 5147 5146 5144 5143 5143 5142 5144 5145 5145 5146 5148 5147 5148 5149 5150 5151 5151 5151 5152 5153 5154 5154 5155 5156 5158 5159 5160 5161 5162 5163 5165
5183 5179 5174 5170 5165 5161 5157 5153 5150 5147 5144 5142 5140 5138 5136 5135 5134 5134 5133 5133 5134 5136 5136 5136 5136 5137 5138 5139 5138 5137 5137 5138 5139 5141 5142 5143 5144 5145 5146 5147 5148 5149 5150 5151
5173 5169 5164 5160 5155 5151 5147 5144 5141 5138 5135 5133 5131 5129 5127 5126 5125 5124 5124 5124 5125 5126 5126 5125 5126 5128 5129 5127 5126 5125 5125 5126 5127 5128 5129 5130 5131 5132 5133 5134 5135 5136 5137 5138
5163 5159 5154 5150 5145 5141 5138 5135 5132 5130 5127 5125 5123 5121 5119 5117 5116 5115 5114 5115 5116 5117 5115 5116 5118 5118 5117 5114 5114 5113 5114 5114 5115 5116 5117 5118 5119 5120 5121 5122 5123 5124 5125 5126
5153 5148 5144 5140 5137 5134 5130 5127 5123 5121 5119 5117 5115 5113 5111 5110 5108 5107 5106 5105 5106 5107 5105 5106 5107 5108 5105 5104 5103 5103 5103 5104 5105 5105 5106 5107 5107 5108 5109 5110 5111 5113 5115 5116
5143 5140 5136 5132 5129 5125 5122 5119 5116 5114 5111 5109 5107 5105 5104 5102 5101 5099 5098 5097 5097 5098 5096 5095 5095 5096 5095 5094 5094 5094 5094 5094 5094 5095 5095 5096 5097 5098 5099 5100 5101 5103 5105 5107
5133 5130 5126 5124 5121 5118 5115 5112 5109 5107 5105 5102 5100 5099 5097 5095 5094 5092 5091 5090 5089 5088 5087 5087 5087 5086 5086 5086 5086 5086 5086 5085 5086 5086 5086 5087 5088 5089 5090 5091 5093 5095 5097 5099